Avoca, PA

8:28 AM EDT on October 18, 2019 (GMT -0400)
Wilkes-Barre-Scranton International

Weather History for KAVP - September, 2019

Change the Weather History Date:

Monday, September 16, 2019

  Actual Average Record
Temperature  
Mean Temperature 69 °F 62 °F  
Max Temperature 79 °F 72 °F 90 °F (1991)
Min Temperature 59 °F 52 °F 37 °F (2001)
Degree Days  
Heating Degree Days 0 4  
Month to date heating degree days 7 42  
Since 1 July heating degree days 8 68  
Cooling Degree Days 4 1  
Month to date cooling degree days 61 40  
Year to date cooling degree days 800 564  
Growing Degree Days 20 (Base 50)    
Moisture  
Dew Point 61 °F    
Average Humidity 77    
Maximum Humidity 93    
Minimum Humidity 60    
Precipitation  
Precipitation 0.01 in 0.15 in 4.91 in (1999)
Month to date precipitation 0.55 2.10  
Year to date precipitation 38.21 27.13  
Sea Level Pressure  
Sea Level Pressure 30.07 in    
Wind  
Wind Speed 3 mph (NNE)    
Max Wind Speed 9 mph    
Max Gust Speed 12 mph    
Visibility 10 miles    
Events      
T = Trace of Precipitation, MM = Missing Value Source: NWS Daily Summary

Daily Weather History Graph

Daily Weather History Graph

Search for Another Location

Airport or City:

Astronomy

Sep. 16, 2019 Rise Set
Actual Time 6:44 AM EDT 7:10 PM EDT
Civil Twilight 6:16 AM EDT 7:38 PM EDT
Nautical Twilight 5:43 AM EDT 8:11 PM EDT
Astronomical Twilight 5:10 AM EDT 8:44 PM EDT
Moon 8:43 PM EDT (9/16) 8:49 AM EDT (9/16)
Length of Visible Light 13h 22m
Length of Day
12h 26m
Waning Gibbous, 94% of the Moon is Illuminated
Sep 16
Waning Gibbous
Sep 21
Last Quarter
Sep 28
New
Oct 5
First Quarter
Oct 13
Full

Hourly Weather History & Observations

Time (EDT) Temp. Dew Point Humidity Pressure Visibility Wind Dir Wind Speed Gust Speed Precip Events Conditions
12:54 AM 64.0 °F 60.1 °F 87% 30.09 in 10.0 mi Calm Calm - N/A   Overcast
1:54 AM 64.9 °F 60.1 °F 84% 30.08 in 10.0 mi South 3.5 mph - N/A   Mostly Cloudy
2:54 AM 64.0 °F 61.0 °F 90% 30.08 in 10.0 mi West 3.5 mph - 0.00 in   Overcast
3:54 AM 64.9 °F 62.1 °F 90% 30.07 in 10.0 mi Calm Calm - 0.01 in   Overcast
4:54 AM 64.0 °F 61.0 °F 90% 30.08 in 10.0 mi Calm Calm - N/A   Overcast
5:54 AM 64.0 °F 62.1 °F 93% 30.09 in 9.0 mi South 3.5 mph - N/A   Overcast
6:54 AM 64.9 °F 61.0 °F 87% 30.09 in 10.0 mi ESE 3.5 mph - N/A   Overcast
7:54 AM 64.9 °F 62.1 °F 90% 30.09 in 10.0 mi Calm Calm - 0.00 in   Overcast
8:54 AM 68.0 °F 63.0 °F 84% 30.08 in 10.0 mi Calm Calm - N/A   Overcast
9:54 AM 72.0 °F 61.0 °F 68% 30.09 in 10.0 mi North 3.5 mph - N/A   Overcast
10:54 AM 73.0 °F 62.1 °F 68% 30.08 in 10.0 mi WNW 3.5 mph - N/A   Overcast
11:54 AM 75.0 °F 62.1 °F 64% 30.06 in - Calm Calm - N/A   Mostly Cloudy
12:47 PM 73.9 °F 61.0 °F 64% 30.07 in - Variable 5.8 mph - N/A   Overcast
12:54 PM 75.0 °F 62.1 °F 64% 30.06 in - North 3.5 mph - N/A   Mostly Cloudy
1:33 PM 73.9 °F 62.1 °F 66% 30.07 in - NE 5.8 mph - N/A   Mostly Cloudy
1:54 PM 75.9 °F 62.1 °F 62% 30.04 in 10.0 mi North 4.6 mph - N/A   Mostly Cloudy
2:54 PM 75.0 °F 61.0 °F 62% 30.03 in 10.0 mi North 5.8 mph - N/A   Overcast
3:54 PM 75.0 °F 62.1 °F 64% 30.02 in 10.0 mi NNW 5.8 mph - N/A   Overcast
4:54 PM 73.9 °F 62.1 °F 66% 30.02 in 10.0 mi North 3.5 mph - N/A   Overcast
5:54 PM 75.0 °F 62.1 °F 64% 30.02 in 10.0 mi NNW 3.5 mph - N/A   Mostly Cloudy
6:54 PM 72.0 °F 61.0 °F 68% 30.03 in 10.0 mi NNE 6.9 mph - N/A   Partly Cloudy
7:54 PM 68.0 °F 59.0 °F 73% 30.04 in 10.0 mi NNE 3.5 mph - N/A   Clear
8:54 PM 64.9 °F 60.1 °F 84% 30.06 in 10.0 mi ESE 3.5 mph - N/A   Clear
9:54 PM 63.0 °F 59.0 °F 87% 30.06 in 10.0 mi ESE 4.6 mph - N/A   Clear
10:54 PM 61.0 °F 57.9 °F 90% 30.08 in 10.0 mi East 4.6 mph - N/A   Clear
11:54 PM 61.0 °F 55.9 °F 83% 30.09 in 10.0 mi East 5.8 mph - N/A   Clear